Weather History for KRKD - March, 2015

Change the Weather History Date:

Tuesday, March 31, 2015

  Actual Average Record
Temperature  
Mean Temperature 36 °F -  
Max Temperature 42 °F 41 °F 75 °F (1998)
Min Temperature 30 °F 29 °F 21 °F (2012)
Degree Days  
Heating Degree Days 29    
Moisture  
Dew Point 22 °F    
Average Humidity 60    
Maximum Humidity 93    
Minimum Humidity 33    
Precipitation  
Precipitation 0.00 in - - ()
Sea Level Pressure  
Sea Level Pressure 29.65 in    
Wind  
Wind Speed 10 mph (West)    
Max Wind Speed 17 mph    
Max Gust Speed 24 mph    
Visibility 10 miles    
Events      
Averages and records for this station are not official NWS values.
T = Trace of Precipitation, MM = Missing Value Source: NWS Daily Summary

Daily Weather History Graph

Daily Weather History Graph

Search for Another Location

Airport or City:

Trip Planner

Search our weather history database for the weather conditions in past years. The results will help you decide how hot, cold, wet, or windy it might be!

Date:

Astronomy

Mar. 31, 2015 Rise Set
Actual Time 6:20 AM EDT 7:01 PM EDT
Civil Twilight 5:50 AM EDT 7:31 PM EDT
Nautical Twilight 5:16 AM EDT 8:05 PM EDT
Astronomical Twilight 4:40 AM EDT 8:41 PM EDT
Moon 3:36 PM EDT (3/31) 4:24 AM EDT (3/31)
Length of Visible Light 13h 40m
Length of Day
12h 41m
Waxing Gibbous, 87% of the Moon is Illuminated
Mar 31
Waxing Gibbous
Apr 4
Full
Apr 11
Last Quarter
Apr 18
New
Apr 25
First Quarter

Hourly Weather History & Observations

Time (EDT) Temp. Windchill Dew Point Humidity Pressure Visibility Wind Dir Wind Speed Gust Speed Precip Events Conditions
12:15 AM 33.8 °F 25.8 °F 30.2 °F 87% 29.61 in 10.0 mi West 10.4 mph - N/A   Scattered Clouds
12:35 AM 33.8 °F 25.8 °F 30.2 °F 87% 29.61 in 10.0 mi West 10.4 mph - N/A   Mostly Cloudy
12:55 AM 33.8 °F 26.4 °F 30.2 °F 87% 29.61 in 10.0 mi West 9.2 mph - N/A   Overcast
1:15 AM 33.8 °F 26.4 °F 30.2 °F 87% 29.61 in 10.0 mi West 9.2 mph - N/A   Overcast
1:35 AM 33.8 °F 26.4 °F 30.2 °F 87% 29.60 in 10.0 mi West 9.2 mph - N/A   Overcast
1:55 AM 33.8 °F 26.4 °F 28.4 °F 81% 29.60 in 10.0 mi West 9.2 mph - N/A   Mostly Cloudy
2:15 AM 33.8 °F 25.8 °F 28.4 °F 81% 29.60 in 10.0 mi West 10.4 mph - N/A   Partly Cloudy
2:35 AM 33.8 °F 26.4 °F 28.4 °F 81% 29.59 in 10.0 mi West 9.2 mph - N/A   Clear
2:55 AM 33.8 °F 25.8 °F 28.4 °F 81% 29.59 in 10.0 mi West 10.4 mph - N/A   Clear
3:15 AM 33.8 °F 26.4 °F 28.4 °F 81% 29.58 in 10.0 mi West 9.2 mph - N/A   Scattered Clouds
3:35 AM 33.8 °F 26.4 °F 28.4 °F 81% 29.58 in 10.0 mi West 9.2 mph - N/A   Overcast
3:55 AM 33.8 °F 26.4 °F 28.4 °F 81% 29.58 in 10.0 mi West 9.2 mph - N/A   Scattered Clouds
4:15 AM 32.0 °F 24.2 °F 28.4 °F 87% 29.58 in 10.0 mi West 9.2 mph - N/A   Mostly Cloudy
4:35 AM 32.0 °F 24.2 °F 28.4 °F 87% 29.58 in 10.0 mi West 9.2 mph - N/A   Overcast
4:55 AM 32.0 °F 24.2 °F 26.6 °F 80% 29.58 in 10.0 mi West 9.2 mph - N/A   Mostly Cloudy
5:15 AM 30.2 °F 21.3 °F 28.4 °F 93% 29.58 in 10.0 mi WSW 10.4 mph - N/A   Partly Cloudy
5:35 AM 30.2 °F 21.3 °F 26.6 °F 86% 29.59 in 10.0 mi West 10.4 mph - N/A   Clear
5:55 AM 30.2 °F 20.8 °F 26.6 °F 86% 29.59 in 10.0 mi West 11.5 mph - N/A   Clear
6:15 AM 30.2 °F 20.8 °F 26.6 °F 86% 29.59 in 10.0 mi West 11.5 mph - N/A   Clear
6:35 AM 30.2 °F 20.2 °F 26.6 °F 86% 29.60 in 10.0 mi West 12.7 mph - N/A   Clear
6:55 AM 32.0 °F 23.0 °F 26.6 °F 80% 29.60 in 10.0 mi West 11.5 mph 16.1 mph N/A   Clear
7:15 AM 32.0 °F 22.5 °F 26.6 °F 80% 29.60 in 10.0 mi West 12.7 mph - N/A   Clear
7:35 AM 32.0 °F 23.6 °F 26.6 °F 80% 29.61 in 10.0 mi West 10.4 mph - N/A   Clear
7:55 AM 33.8 °F 27.7 °F 26.6 °F 75% 29.62 in 10.0 mi West 6.9 mph - N/A   Clear
8:15 AM 33.8 °F 29.6 °F 26.6 °F 75% 29.63 in 10.0 mi West 4.6 mph - N/A   Clear
8:35 AM 33.8 °F 27.0 °F 26.6 °F 75% 29.63 in 10.0 mi West 8.1 mph - N/A   Clear
8:55 AM 37.4 °F 30.8 °F 24.8 °F 60% 29.63 in 10.0 mi WNW 9.2 mph 18.4 mph N/A   Clear
9:15 AM 37.4 °F 29.8 °F 26.6 °F 65% 29.64 in 10.0 mi WNW 11.5 mph 18.4 mph N/A   Clear
9:35 AM 37.4 °F 28.9 °F 24.8 °F 60% 29.64 in 10.0 mi West 13.8 mph 20.7 mph N/A   Clear
9:55 AM 37.4 °F 27.8 °F 24.8 °F 60% 29.64 in 10.0 mi West 17.3 mph 20.7 mph N/A   Clear
10:15 AM 39.2 °F 30.8 °F 24.8 °F 56% 29.64 in 10.0 mi West 15.0 mph 24.2 mph N/A   Clear
10:35 AM 39.2 °F 30.2 °F 24.8 °F 56% 29.64 in 10.0 mi West 17.3 mph 24.2 mph N/A   Clear
10:55 AM 37.4 °F 29.3 °F 24.8 °F 60% 29.65 in 10.0 mi West 12.7 mph - N/A   Clear
11:15 AM 39.2 °F 30.2 °F 24.8 °F 56% 29.64 in 10.0 mi West 17.3 mph 20.7 mph N/A   Clear
11:35 AM 39.2 °F 32.0 °F 24.8 °F 56% 29.64 in 10.0 mi WNW 11.5 mph 17.3 mph N/A   Clear
11:55 AM 39.2 °F 31.6 °F 23.0 °F 52% 29.64 in 10.0 mi West 12.7 mph 20.7 mph N/A   Partly Cloudy
12:15 PM 39.2 °F 30.5 °F 21.2 °F 49% 29.64 in 10.0 mi West 16.1 mph - N/A   Partly Cloudy
12:35 PM 39.2 °F 30.5 °F 23.0 °F 52% 29.64 in 10.0 mi West 16.1 mph - N/A   Clear
12:55 PM 39.2 °F 30.5 °F 21.2 °F 49% 29.64 in 10.0 mi West 16.1 mph 21.9 mph N/A   Clear
1:15 PM 41.0 °F 32.5 °F 21.2 °F 45% 29.64 in 10.0 mi West 17.3 mph 20.7 mph N/A   Clear
1:35 PM 39.2 °F 30.8 °F 21.2 °F 49% 29.64 in 10.0 mi West 15.0 mph 20.7 mph N/A   Clear
1:55 PM 41.0 °F 32.8 °F 21.2 °F 45% 29.63 in 10.0 mi West 16.1 mph 20.7 mph N/A   Clear
2:15 PM 41.0 °F 32.8 °F 21.2 °F 45% 29.63 in 10.0 mi West 16.1 mph - N/A   Clear
2:35 PM 41.0 °F 33.1 °F 21.2 °F 45% 29.63 in 10.0 mi West 15.0 mph - N/A   Clear
2:55 PM 41.0 °F 33.1 °F 19.4 °F 42% 29.63 in 10.0 mi West 15.0 mph 20.7 mph N/A   Clear
3:15 PM 41.0 °F 32.5 °F 19.4 °F 42% 29.63 in 10.0 mi West 17.3 mph 21.9 mph N/A   Clear
3:35 PM 41.0 °F 33.5 °F 19.4 °F 42% 29.63 in 10.0 mi West 13.8 mph - N/A   Clear
3:55 PM 42.8 °F 35.1 °F 19.4 °F 39% 29.63 in 10.0 mi West 16.1 mph - N/A   Clear
4:15 PM 42.8 °F 35.1 °F 19.4 °F 39% 29.63 in 10.0 mi West 16.1 mph 21.9 mph N/A   Clear
4:35 PM 42.8 °F 38.0 °F 19.4 °F 39% 29.65 in 10.0 mi WNW 8.1 mph 20.7 mph N/A   Clear
4:55 PM 42.8 °F 38.0 °F 17.6 °F 36% 29.65 in 10.0 mi WNW 8.1 mph 18.4 mph N/A   Clear
5:15 PM 42.8 °F 35.8 °F 15.8 °F 34% 29.65 in 10.0 mi West 13.8 mph - N/A   Clear
5:35 PM 41.0 °F 35.2 °F 15.8 °F 36% 29.66 in 10.0 mi WNW 9.2 mph 18.4 mph N/A   Clear
5:55 PM 41.0 °F 34.3 °F 14.0 °F 33% 29.67 in 10.0 mi West 11.5 mph - N/A   Clear
6:15 PM 39.2 °F 32.5 °F 17.6 °F 42% 29.68 in 10.0 mi WNW 10.4 mph - N/A   Clear
6:35 PM 39.2 °F 32.5 °F 14.0 °F 36% 29.69 in 10.0 mi West 10.4 mph - N/A   Clear
6:55 PM 39.2 °F 35.0 °F 15.8 °F 39% 29.70 in 10.0 mi WNW 5.8 mph - N/A   Clear
7:15 PM 37.4 °F - 14.0 °F 38% 29.71 in 10.0 mi Calm Calm - N/A   Clear
7:35 PM 35.6 °F - 15.8 °F 44% 29.72 in 10.0 mi Calm Calm - N/A   Clear
7:55 PM 35.6 °F - 14.0 °F 41% 29.73 in 10.0 mi Calm Calm - N/A   Clear
8:15 PM 32.0 °F - 17.6 °F 55% 29.74 in 10.0 mi Calm Calm - N/A   Clear
8:35 PM 30.2 °F - 15.8 °F 55% 29.75 in 10.0 mi Calm Calm - N/A   Clear
8:55 PM 30.2 °F - 21.2 °F 69% 29.75 in 10.0 mi Calm Calm - N/A   Clear
9:15 PM 30.2 °F 26.7 °F 19.4 °F 64% 29.76 in 10.0 mi NW 3.5 mph - N/A   Clear
9:35 PM 30.2 °F 26.7 °F 17.6 °F 60% 29.76 in 10.0 mi WNW 3.5 mph - N/A   Clear
9:55 PM 32.0 °F 28.7 °F 17.6 °F 55% 29.77 in 10.0 mi WNW 3.5 mph - N/A   Clear
10:15 PM 33.8 °F 29.6 °F 14.0 °F 44% 29.78 in 10.0 mi NW 4.6 mph - N/A   Clear
10:35 PM 33.8 °F 30.8 °F 10.4 °F 38% 29.77 in 10.0 mi NNW 3.5 mph - N/A   Clear
10:55 PM 33.8 °F 30.8 °F 8.6 °F 35% 29.78 in 10.0 mi WNW 3.5 mph - N/A   Clear
11:15 PM 30.2 °F 26.7 °F 12.2 °F 47% 29.78 in 10.0 mi NW 3.5 mph - N/A   Clear
11:35 PM 33.8 °F 30.8 °F 8.6 °F 35% 29.79 in 10.0 mi NNW 3.5 mph - N/A   Clear
11:55 PM 33.8 °F 28.6 °F 8.6 °F 35% 29.78 in 10.0 mi NW 5.8 mph - N/A   Clear